VE6EN Weather Reports


time (UTC)temp
F
wind
direction
speed
knots
gust
knots
rain 1hr
in
rain 24hr
in
rain mn
in
humidity
%
barometer
mb
20260906234004 54 51 0.0 1.7 0.00 0.09 0.04 95 1015.8
20260906233003 54 51 0.0 2.6 0.00 0.09 0.04 95 1015.8
20260906231005 54 64 0.0 1.7 0.00 0.09 0.04 95 1015.9
20260906230004 54 64 0.0 2.6 0.00 0.10 0.04 96 1016.1
20260906225003 54 46 0.0 3.5 0.00 0.10 0.04 96 1016.1
20260906224005 54 65 0.0 3.5 0.00 0.10 0.04 97 1016.2
20260906223003 54 50 0.0 2.6 0.00 0.10 0.04 98 1016.1
20260906222003 54 50 0.0 2.6 0.00 0.10 0.04 98 1016.1
20260906221011 54 49 0.0 3.5 0.00 0.10 0.04 98 1016.2
20260906220003 54 57 0.0 2.6 0.00 0.13 0.04 98 1016.2
20260906215003 54 57 0.9 3.5 0.00 0.13 0.04 98 1016.3
20260906214003 53 64 0.0 2.6 0.00 0.13 0.04 98 1016.2
20260906213003 53 63 0.0 2.6 0.00 0.13 0.04 98 1016.2
20260906212003 53 63 0.0 1.7 0.00 0.13 0.04 98 1016.3
20260906211003 53 63 0.0 2.6 0.00 0.13 0.04 98 1016.3
20260906210004 53 63 0.0 0.9 0.00 0.13 0.04 98 1016.4
20260906205003 52 63 0.0 0.0 0.00 0.15 0.04 98 1016.4
20260906204003 52 63 0.0 0.0 0.01 0.15 0.04 98 1016.4
20260906203002 52 63 0.0 1.7 0.01 0.15 0.04 98 1016.5
20260906202002 52 63 0.0 0.9 0.01 0.15 0.04 98 1016.5
20260906201002 51 63 0.0 0.9 0.01 0.15 0.04 98 1016.7
20260906200002 51 63 0.0 2.6 0.01 0.19 0.04 98 1016.8
20260906195002 51 63 0.0 0.9 0.02 0.19 0.04 98 1016.8
20260906194002 51 63 0.0 1.7 0.01 0.18 0.03 98 1016.8
20260906193003 51 63 0.0 1.7 0.01 0.18 0.03 98 1016.8
20260906192003 51 63 0.0 1.7 0.01 0.18 0.03 98 1016.9
20260906191003 50 63 0.9 2.6 0.01 0.18 0.03 98 1017.0
20260906190003 50 63 0.9 3.5 0.02 0.19 0.03 98 1017.1
20260906185003 50 74 0.0 2.6 0.01 0.18 0.02 98 1017.2
20260906184002 50 76 0.0 2.6 0.01 0.18 0.02 98 1017.1
20260906183003 50 79 0.0 2.6 0.01 0.18 0.02 98 1017.1
20260906182003 50 80 0.9 3.5 0.01 0.18 0.02 98 1017.2
20260906181002 50 65 0.0 1.7 0.01 0.18 0.02 98 1017.3
20260906180003 49 65 0.0 4.3 0.00 0.17 0.02 98 1017.3
20260906175003 49 67 0.9 2.6 0.00 0.17 0.02 98 1017.4
20260906174002 49 227 0.0 2.6 0.00 0.17 0.02 98 1017.5
20260906173003 48 244 0.0 1.7 0.00 0.17 0.02 98 1017.6
20260906172002 48 244 0.0 0.9 0.00 0.17 0.02 98 1017.6
20260906171003 48 244 0.0 0.9 0.00 0.17 0.02 98 1017.7
20260906170002 48 244 0.0 0.0 0.00 0.17 0.02 98 1017.9
20260906165003 48 244 0.0 1.7 0.00 0.17 0.02 98 1018.0
20260906164003 48 244 0.0 0.0 0.00 0.17 0.02 98 1018.1
20260906163002 47 244 0.0 0.0 0.00 0.17 0.02 98 1018.0
20260906162001 47 244 0.0 0.0 0.00 0.17 0.02 98 1018.1
20260906161003 47 244 0.0 0.0 0.00 0.17 0.02 98 1018.3
20260906160002 47 244 0.0 0.0 0.00 0.17 0.02 98 1018.1
20260906155002 47 244 0.0 0.0 0.00 0.17 0.02 98 1018.0
20260906154002 46 244 0.0 0.0 0.00 0.17 0.02 98 1018.0
20260906153002 46 244 0.0 0.0 0.00 0.17 0.02 98 1018.0
20260906152002 46 244 0.0 0.0 0.00 0.17 0.02 98 1018.2
20260906151002 46 244 0.0 0.0 0.00 0.17 0.02 98 1018.2
20260906150003 46 244 0.0 0.0 0.00 0.17 0.02 98 1018.1
20260906145003 46 244 0.0 0.0 0.00 0.17 0.02 98 1018.3
20260906144003 45 244 0.0 0.0 0.00 0.17 0.02 98 1018.0
20260906143003 45 244 0.0 0.0 0.00 0.17 0.02 98 1018.0
20260906142003 45 244 0.0 0.0 0.00 0.17 0.02 98 1018.0
20260906141003 45 244 0.0 0.0 0.00 0.17 0.02 98 1018.1
20260906140003 45 244 0.0 0.0 0.01 0.17 0.02 97 1018.2
20260906135000 45 244 0.0 0.0 0.02 0.17 0.02 97 1018.2
20260906134002 45 244 0.0 0.0 0.02 0.17 0.02 98 1018.4
20260906133000 46 244 0.0 0.0 0.02 0.17 0.02 98 1018.4
20260906132002 46 244 0.0 0.0 0.02 0.17 0.02 98 1018.4
20260906131003 45 244 0.0 0.0 0.02 0.17 0.02 98 1018.5
20260906130001 45 244 0.0 0.0 0.01 0.17 0.01 98 1018.5
20260906125002 45 244 0.0 0.0 0.00 0.16 0.00 98 1018.5
20260906124002 45 244 0.0 0.0 0.00 0.16 0.00 98 1018.7
20260906123002 45 244 0.0 0.0 0.00 0.16 0.00 98 1018.7
20260906122002 45 244 0.0 0.0 0.00 0.16 0.00 98 1018.8
20260906121002 45 244 0.0 0.0 0.00 0.16 0.00 98 1018.9
20260906120002 45 244 0.0 0.0 0.00 0.16 0.00 98 1019.1
20260906115001 45 244 0.0 0.0 0.00 0.16 0.00 98 1019.5
20260906114002 45 244 0.0 0.0 0.00 0.16 0.00 98 1019.8
20260906113000 45 244 0.0 0.0 0.00 0.16 0.00 98 1019.6
20260906112002 44 244 0.0 0.0 0.00 0.16 0.00 97 1019.6
20260906111003 45 244 0.0 0.0 0.00 0.16 0.00 97 1019.8
20260906110002 45 244 0.0 0.0 0.00 0.16 0.00 97 1019.9
20260906104959 44 244 0.0 0.0 0.00 0.16 0.00 97 1020.0
20260906103959 44 244 0.0 0.0 0.00 0.16 0.00 97 1019.8
20260906102959 45 244 0.0 0.0 0.00 0.16 0.00 97 1019.9
20260906102000 45 244 0.0 0.0 0.00 0.16 0.00 97 1019.4
20260906101003 45 244 0.0 0.0 0.00 0.16 0.00 97 1019.7
20260906100002 45 244 0.0 0.0 0.00 0.16 0.00 97 1019.6
20260906095000 45 244 0.0 0.0 0.00 0.16 0.00 97 1019.6
20260906094001 46 244 0.0 0.0 0.00 0.16 0.00 97 1019.9
20260906093003 46 244 0.0 0.0 0.00 0.16 0.00 97 1020.0
20260906092002 45 244 0.0 0.0 0.00 0.16 0.00 97 1020.0
20260906091002 45 244 0.0 0.0 0.00 0.16 0.00 97 1020.1
20260906085959 45 244 0.0 0.0 0.00 0.16 0.00 96 1020.2
20260906084959 46 244 0.0 0.0 0.00 0.16 0.00 96 1020.3
20260906084000 46 244 0.0 0.0 0.00 0.16 0.00 97 1020.5
20260906083002 47 244 0.0 0.0 0.00 0.16 0.00 97 1020.6
20260906082000 47 244 0.0 0.0 0.00 0.16 0.00 97 1020.7
20260906081005 47 244 0.0 0.0 0.00 0.16 0.00 97 1020.8
20260906080000 47 244 0.0 0.0 0.00 0.16 0.00 97 1020.8
20260906075003 47 244 0.0 0.0 0.00 0.16 0.00 97 1020.8
20260906074001 47 244 0.0 0.0 0.00 0.16 0.00 97 1020.8
20260906072959 47 244 0.0 0.0 0.00 0.16 0.00 97 1020.9
20260906072003 47 244 0.0 0.0 0.00 0.16 0.00 97 1020.9
20260906071003 46 244 0.0 0.0 0.00 0.16 0.00 97 1021.0
20260906070005 46 244 0.0 0.0 0.00 0.16 0.00 97 1021.1
20260906065004 46 244 0.0 0.0 0.00 0.16 0.00 97 1021.0
20260906064004 46 244 0.0 0.0 0.00 0.16 0.00 97 1021.1
20260906063005 46 244 0.0 0.0 0.00 0.16 0.00 97 1021.1
20260906062003 46 244 0.0 0.0 0.00 0.16 0.00 97 1021.0
20260906061004 46 244 0.0 0.0 0.00 0.16 0.00 97 1021.0
20260906060003 46 244 0.0 0.0 0.00 0.16 0.16 97 1020.9
20260906055003 47 244 0.0 0.0 0.00 0.16 0.16 97 1020.9
20260906054003 47 244 0.0 0.0 0.01 0.16 0.16 97 1021.1
20260906053003 47 244 0.0 0.9 0.02 0.16 0.16 97 1021.2
20260906052003 47 244 0.0 0.0 0.02 0.16 0.16 97 1021.3
20260906051003 47 244 0.0 0.0 0.02 0.16 0.16 97 1021.3
20260906050003 47 244 0.0 0.0 0.02 0.16 0.16 97 1021.5
20260906045003 47 244 0.0 0.0 0.02 0.16 0.16 97 1021.5
20260906044004 47 244 0.0 0.0 0.01 0.15 0.15 97 1021.5
20260906043003 47 244 0.0 0.0 0.00 0.14 0.14 97 1021.3
20260906041008 47 244 0.0 0.0 0.00 0.14 0.14 97 1021.2
20260906040002 47 244 0.0 0.0 0.00 0.14 0.14 97 1021.2
20260906035003 46 244 0.0 0.0 0.00 0.14 0.14 97 1021.0
20260906034003 46 244 0.0 0.0 0.00 0.14 0.14 97 1021.0
20260906033003 46 244 0.0 0.0 0.00 0.14 0.14 96 1020.6
20260906032003 46 244 0.0 0.9 0.00 0.14 0.14 96 1020.5
20260906031003 46 244 0.0 0.0 0.00 0.14 0.14 96 1020.5
20260906030003 46 244 0.0 0.0 0.00 0.14 0.14 96 1020.6
20260906025010 47 244 0.0 0.0 0.00 0.14 0.14 96 1020.5
20260906024003 47 244 0.0 0.0 0.00 0.14 0.14 96 1020.3
20260906023004 47 244 0.0 1.7 0.00 0.14 0.14 96 1020.4
20260906022015 47 244 0.0 0.0 0.00 0.14 0.14 96 1020.5
20260906021003 47 244 0.0 0.0 0.00 0.14 0.14 96 1020.6
20260906020003 47 244 0.0 0.0 0.00 0.14 0.14 96 1020.8
20260906015004 47 244 0.0 0.0 0.01 0.14 0.14 96 1020.8
20260906014005 47 244 0.0 0.0 0.01 0.14 0.14 96 1020.8
20260906013004 48 244 0.0 0.0 0.01 0.14 0.14 96 1020.7
20260906012003 48 244 0.0 0.9 0.02 0.14 0.14 96 1020.5
20260906011006 48 244 0.0 0.0 0.02 0.14 0.14 96 1020.5
20260906010004 48 244 0.0 0.9 0.02 0.14 0.14 96 1020.4
20260906005005 48 244 0.0 0.9 0.02 0.13 0.13 96 1020.5
20260906004005 48 244 0.0 0.9 0.02 0.13 0.13 96 1020.3
20260906003005 48 244 0.0 0.0 0.02 0.13 0.13 96 1020.5
20260906002003 48 244 0.0 0.0 0.02 0.13 0.13 96 1020.5
20260906001007 48 244 0.0 1.7 0.02 0.13 0.13 96 1020.5
20260906000004 48 245 0.0 1.7 0.02 0.13 0.13 96 1020.3
20260905235003 48 245 0.0 0.9 0.01 0.12 0.12 96 1020.4